Wind_Speed
40 40 40 40 40 40 40 41 42 42 43 44 45 45 45 46 46 46 46 45 45 45 45 46 47 47 47 47 47 47 47 46 46 45 44 43 43 43 42 41 41 40 40
40 41 41 41 41 41 41 42 42 43 43 44 45 46 47 47 47 47 47 46 46 45 45 46 47 48 48 48 48 49 49 49 48 47 47 46 45 45 44 44 44 43 43
41 41 42 42 42 42 42 42 42 43 44 44 45 46 47 47 47 47 48 48 47 47 47 47 47 48 48 48 48 48 49 49 49 49 49 48 47 47 46 46 46 46 46
41 41 41 42 42 42 42 42 42 43 44 44 45 45 46 47 47 48 49 49 48 48 49 49 49 48 49 49 49 50 50 50 50 50 50 50 49 49 49 48 48 48 48
41 40 40 41 41 41 42 42 43 43 43 44 45 46 47 47 48 49 49 49 49 49 49 49 49 49 49 49 49 50 50 50 50 50 51 52 51 51 51 50 50 50 51
40 40 41 41 41 42 42 42 43 43 44 44 45 46 47 47 48 48 48 48 48 48 49 50 49 49 48 48 49 49 49 49 49 50 51 52 52 52 53 52 52 52 52
40 41 41 41 41 42 42 43 43 43 44 45 45 45 46 46 46 47 47 46 47 47 48 49 49 49 49 48 48 48 49 50 50 50 50 51 52 53 53 53 53 53 52
41 41 41 42 42 42 43 43 43 44 44 44 44 45 45 45 45 46 45 46 47 47 47 48 49 49 50 50 49 49 50 50 50 50 51 52 52 52 53 53 54 54 53
40 40 40 40 41 42 43 43 44 44 44 45 45 45 45 45 45 45 45 45 46 47 48 48 49 50 50 50 50 50 50 50 51 51 52 52 53 53 53 53 54 55 54
40 40 40 40 41 42 43 43 44 44 44 45 45 46 46 46 45 45 46 46 46 47 48 48 48 49 50 51 50 50 50 51 51 52 52 53 53 54 54 54 54 55 55
40 40 40 40 41 42 43 43 43 44 44 44 45 45 45 46 47 46 46 47 47 48 48 49 50 50 50 50 51 51 52 52 53 53 53 53 53 54 54 55 55 56 56
39 39 40 41 41 41 42 42 43 43 44 44 44 45 46 47 48 48 48 48 48 49 50 50 51 50 50 51 52 52 53 53 53 54 54 55 55 55 56 56 56 57 57
38 39 40 41 41 41 41 42 42 42 43 44 45 45 46 47 48 48 49 49 49 50 51 51 51 52 52 53 53 53 53 54 54 55 56 56 57 57 57 56 55 57 57
38 39 39 39 40 40 40 41 42 42 43 44 44 45 46 46 47 47 48 49 50 50 50 51 51 52 52 53 53 54 54 54 55 56 57 57 57 57 56 56 57 57 57
37 37 37 38 39 39 39 40 41 42 42 43 43 44 45 45 46 46 47 48 49 49 49 50 50 51 51 53 53 54 54 54 54 55 56 57 57 57 57 57 57 57 57
36 36 36 36 37 38 39 39 40 41 41 41 42 43 43 44 45 46 47 47 47 47 48 49 50 50 51 51 52 53 53 54 53 53 54 55 55 56 58 58 58 58 58
35 35 35 35 36 36 37 39 40 40 40 40 41 41 42 42 44 45 46 46 46 48 49 49 49 50 51 51 52 52 53 52 53 54 54 55 55 56 57 58 58 58 59
35 35 36 36 37 37 38 38 38 39 39 40 39 40 41 42 42 43 44 45 47 48 48 48 48 49 51 51 51 51 51 51 53 53 54 54 55 55 56 56 57 58 58
36 36 36 36 36 37 37 37 37 37 37 38 38 39 39 40 41 42 43 44 45 46 47 47 48 48 49 51 51 52 52 52 53 53 54 55 55 56 56 57 57 57 58
36 36 36 36 36 36 36 35 35 36 36 37 37 39 39 39 40 41 42 43 43 44 45 46 46 47 49 50 51 51 52 52 52 52 53 54 55 55 56 57 56 56 57
37 37 37 37 37 36 36 35 35 36 37 37 37 39 39 40 40 41 41 42 43 43 44 45 46 47 48 49 50 50 51 51 51 51 52 52 53 54 55 55 54 54 55
36 36 37 37 37 36 36 36 36 36 37 37 38 39 39 40 40 41 41 42 42 43 44 45 46 47 48 48 49 49 50 50 51 50 50 50 51 51 52 53 53 53 53
34 35 35 35 35 35 35 36 36 37 37 37 38 38 38 39 40 40 41 42 42 43 44 45 45 46 46 47 47 47 48 49 49 49 48 48 49 49 50 51 51 52 52
33 34 34 34 34 34 34 35 36 36 36 36 36 36 37 38 39 40 40 41 42 42 42 42 43 44 45 45 46 46 46 47 47 46 46 46 47 48 49 49 50 49 49
32 32 33 33 33 33 34 34 35 35 35 35 35 36 37 38 38 38 39 39 39 40 40 41 41 42 43 45 45 45 45 45 46 46 46 46 47 47 47 48 48 48 48
31 32 32 32 32 32 33 33 33 33 34 34 34 35 35 36 37 37 37 37 38 39 40 40 41 41 42 43 43 44 44 45 45 45 46 46 47 47 46 45 45 46 46
Wind_Direction
264 263 263 263 262 261 261 260 261 261 261 261 260 260 260 260 261 260 260 260 260 261 261 260 260 260 260 260 260 261 261 262 262 261 261 261 262 262 261 261 259 258 257
264 264 264 263 263 263 262 261 261 261 261 261 261 261 260 260 260 260 260 260 260 260 261 261 261 260 260 260 260 260 261 262 262 262 261 260 260 261 261 260 259 258 258
265 264 264 264 264 264 263 262 261 261 261 262 261 261 261 261 261 260 259 260 260 260 260 260 261 261 260 261 261 261 261 261 262 263 262 260 259 259 260 260 259 259 258
265 265 265 265 265 264 264 263 262 262 261 261 261 262 261 261 261 261 261 260 260 260 260 261 262 262 262 263 262 262 262 262 262 262 262 261 260 260 259 259 259 259 259
266 265 265 265 265 264 264 262 262 262 262 262 262 262 262 262 262 262 262 261 261 261 261 261 262 262 263 263 263 262 262 262 262 262 262 262 262 261 260 259 259 260 259
267 266 265 265 265 264 264 263 263 263 262 262 263 264 263 263 262 262 262 262 262 262 262 261 261 262 262 262 262 262 261 261 262 262 262 263 263 263 262 261 260 260 260
267 267 266 265 265 264 264 263 264 264 264 264 264 265 264 264 263 262 262 262 262 262 261 262 262 261 262 262 262 263 262 262 262 262 263 263 264 263 263 262 261 261 261
268 268 268 266 265 264 264 264 264 264 265 265 264 265 265 264 263 262 263 263 263 263 262 262 262 262 262 262 263 263 263 262 262 263 263 264 265 265 263 263 262 262 262
270 271 270 268 267 265 264 264 264 264 264 265 265 264 264 264 263 263 263 263 263 263 262 262 262 263 263 263 264 265 264 264 263 263 264 264 265 265 265 264 264 263 262
271 272 271 269 268 266 266 266 264 264 264 263 263 262 263 263 262 263 263 263 263 263 263 262 263 264 264 264 265 265 266 265 264 264 265 266 265 265 266 266 265 264 264
271 272 272 270 269 268 267 266 265 264 264 264 264 263 263 262 262 263 264 264 264 264 264 264 264 265 265 265 266 266 267 267 266 265 265 265 265 266 267 267 266 265 264
273 273 273 271 270 269 269 268 267 265 264 264 264 265 264 262 262 263 264 264 265 265 265 265 265 265 266 267 267 268 268 268 267 266 265 266 266 267 267 267 266 265 265
273 274 274 273 272 271 270 270 268 267 266 265 265 265 265 263 263 264 265 265 266 266 265 265 265 266 266 267 268 269 268 268 268 267 266 266 267 267 268 267 267 266 265
275 275 274 273 272 272 272 271 269 269 268 267 267 266 266 265 265 265 266 266 267 266 266 265 265 266 267 267 268 268 268 268 268 267 267 266 266 267 267 267 266 265 264
275 275 274 273 273 273 273 272 271 270 269 269 268 267 266 265 265 265 266 267 268 266 265 264 265 266 267 267 268 268 268 269 269 268 267 267 266 266 266 267 267 267 266
276 276 275 275 275 274 273 272 272 272 271 270 270 269 268 267 267 267 267 268 267 266 265 266 266 267 267 268 268 269 269 269 269 269 268 267 267 267 267 267 267 267 267
277 276 275 276 276 276 276 274 273 272 272 272 271 270 268 268 268 268 268 268 269 268 267 267 268 268 267 268 269 269 269 268 269 270 268 267 267 267 267 267 266 267 267
277 277 277 277 278 277 277 276 274 273 273 272 272 271 270 270 270 269 269 269 269 269 269 269 269 269 269 269 269 269 268 269 270 270 270 268 267 267 268 268 267 267 266
278 278 279 279 279 279 278 276 274 273 273 272 271 270 271 272 271 271 271 271 269 269 269 269 270 270 270 270 270 270 269 270 271 271 271 269 268 267 268 268 268 267 267
279 279 279 279 279 279 277 275 274 274 274 273 272 272 272 273 273 273 273 272 271 270 270 270 271 272 272 271 271 270 271 272 271 271 271 270 269 268 268 268 268 268 268
279 278 279 279 279 279 278 276 276 275 275 274 274 274 275 275 275 275 275 274 273 273 272 272 272 273 274 274 273 273 273 272 272 271 271 270 270 270 269 269 269 269 268
279 279 279 279 279 278 277 277 277 277 277 276 276 276 276 277 277 276 276 276 275 275 274 274 274 274 275 275 275 275 274 274 273 273 272 273 272 271 271 270 269 269 268
281 281 281 281 279 279 279 278 278 278 278 277 278 278 278 278 278 278 278 277 277 277 277 277 277 276 276 277 276 276 276 275 274 274 273 273 273 272 272 271 269 268 268
284 284 283 282 281 280 279 279 279 279 278 278 278 277 278 280 281 280 280 279 278 279 279 278 278 278 277 277 277 276 276 276 275 274 274 273 274 273 273 272 270 269 268
288 286 286 284 283 282 282 282 281 280 280 280 280 280 281 282 282 281 281 281 280 280 280 279 279 279 278 278 277 277 277 277 276 275 275 274 273 273 273 272 270 269 269
289 288 287 286 285 285 285 285 283 282 282 282 282 283 284 284 284 284 283 282 282 281 281 281 282 281 280 279 278 278 278 278 277 276 276 275 275 274 274 273 271 270 269
Height
5698 5698 5699 5699 5699 5699 5700 5701 5701 5702 5703 5704 5705 5707 5709 5710 5712 5714 5715 5717 5719 5721 5723 5724 5725 5727 5729 5731 5733 5734 5736 5737 5739 5741 5743 5745 5746 5748 5749 5751 5752 5754 5756
5688 5688 5688 5688 5688 5688 5689 5689 5690 5691 5692 5693 5694 5695 5696 5698 5699 5701 5703 5705 5707 5709 5710 5712 5713 5715 5716 5718 5720 5722 5724 5725 5726 5728 5730 5733 5736 5737 5738 5740 5741 5743 5745
5677 5677 5677 5677 5677 5678 5678 5678 5679 5679 5680 5681 5682 5683 5684 5686 5687 5689 5691 5693 5695 5697 5698 5699 5701 5702 5704 5705 5707 5709 5711 5713 5714 5715 5717 5720 5722 5725 5727 5728 5730 5731 5733
5665 5666 5666 5666 5666 5667 5667 5667 5667 5668 5668 5669 5670 5671 5672 5674 5676 5677 5679 5680 5682 5684 5685 5687 5688 5690 5691 5693 5694 5696 5697 5699 5701 5702 5704 5706 5708 5711 5714 5716 5717 5719 5721
5654 5655 5655 5655 5655 5655 5656 5656 5656 5656 5657 5658 5659 5660 5661 5662 5663 5665 5666 5668 5669 5671 5672 5674 5675 5676 5678 5679 5681 5682 5684 5686 5687 5689 5690 5692 5694 5696 5699 5702 5704 5705 5707
5643 5644 5644 5644 5644 5644 5644 5645 5645 5646 5646 5647 5647 5648 5649 5650 5651 5652 5654 5655 5657 5658 5659 5661 5662 5663 5665 5666 5667 5669 5670 5672 5674 5675 5677 5678 5680 5682 5684 5687 5689 5691 5693
5633 5633 5633 5633 5633 5633 5633 5634 5634 5635 5635 5635 5636 5636 5637 5637 5638 5640 5641 5643 5644 5645 5646 5648 5649 5651 5652 5653 5654 5655 5657 5659 5660 5662 5663 5664 5666 5667 5669 5672 5674 5677 5679
5622 5622 5621 5622 5622 5622 5622 5622 5623 5623 5624 5624 5624 5624 5625 5626 5627 5628 5629 5630 5631 5633 5634 5635 5636 5638 5639 5640 5641 5643 5644 5645 5647 5648 5649 5651 5652 5653 5654 5656 5658 5661 5664
5611 5610 5610 5610 5610 5610 5610 5611 5611 5612 5612 5612 5613 5613 5613 5614 5615 5616 5617 5618 5619 5620 5621 5622 5623 5625 5626 5627 5628 5629 5631 5632 5633 5634 5635 5637 5638 5639 5640 5641 5643 5645 5647
5599 5599 5599 5599 5599 5598 5598 5598 5599 5599 5600 5600 5601 5602 5602 5603 5603 5604 5605 5606 5607 5607 5608 5609 5610 5611 5612 5613 5614 5616 5617 5618 5619 5620 5621 5622 5623 5624 5625 5626 5627 5628 5630
5588 5588 5588 5588 5587 5587 5587 5586 5586 5587 5588 5588 5589 5590 5590 5591 5592 5592 5593 5594 5594 5595 5595 5596 5597 5598 5598 5599 5600 5601 5602 5603 5605 5606 5607 5608 5608 5609 5610 5610 5611 5612 5613
5577 5577 5577 5576 5576 5575 5575 5575 5575 5575 5576 5576 5577 5577 5578 5579 5579 5580 5580 5581 5581 5582 5582 5583 5583 5584 5585 5585 5586 5587 5588 5588 5589 5591 5591 5592 5593 5594 5595 5595 5595 5596 5597
5566 5566 5565 5564 5564 5564 5563 5563 5563 5563 5563 5564 5564 5565 5565 5566 5566 5567 5568 5568 5568 5568 5569 5569 5570 5570 5570 5571 5571 5572 5572 5573 5574 5575 5576 5577 5577 5578 5579 5579 5579 5580 5581
5556 5555 5554 5553 5552 5552 5552 5551 5551 5551 5551 5551 5552 5552 5552 5553 5554 5554 5554 5554 5554 5554 5555 5555 5555 5556 5556 5556 5556 5557 5557 5557 5558 5558 5559 5560 5561 5562 5563 5563 5563 5563 5564
5545 5544 5543 5542 5541 5541 5540 5540 5539 5539 5538 5539 5539 5539 5540 5540 5541 5541 5541 5540 5540 5540 5540 5541 5541 5541 5541 5541 5541 5541 5542 5542 5542 5543 5543 5544 5545 5545 5546 5546 5547 5547 5547
5534 5533 5532 5531 5530 5530 5529 5528 5527 5527 5526 5526 5526 5526 5527 5527 5527 5527 5527 5527 5526 5526 5527 5527 5527 5527 5526 5526 5526 5526 5526 5526 5527 5527 5527 5528 5528 5529 5529 5529 5530 5530 5531
5524 5523 5522 5521 5520 5519 5517 5517 5516 5515 5515 5514 5514 5514 5514 5514 5514 5514 5514 5513 5513 5513 5513 5512 5512 5512 5512 5511 5511 5511 5511 5511 5512 5512 5512 5512 5512 5512 5512 5512 5513 5513 5514
5514 5513 5512 5510 5509 5508 5506 5505 5504 5504 5503 5502 5502 5502 5502 5502 5501 5501 5500 5500 5500 5499 5499 5499 5498 5498 5497 5496 5496 5496 5496 5496 5496 5496 5496 5496 5496 5496 5496 5496 5496 5497 5498
5504 5503 5501 5500 5499 5497 5495 5494 5493 5492 5491 5491 5490 5490 5490 5489 5489 5488 5487 5487 5486 5486 5485 5485 5484 5484 5482 5481 5481 5481 5481 5481 5481 5481 5480 5480 5480 5480 5479 5480 5480 5481 5481
5494 5493 5491 5490 5488 5487 5485 5484 5482 5481 5481 5480 5479 5478 5478 5477 5476 5475 5475 5474 5473 5472 5471 5471 5470 5469 5468 5467 5466 5466 5466 5466 5466 5465 5464 5464 5463 5463 5462 5463 5464 5465 5465
5484 5482 5481 5479 5478 5476 5474 5473 5472 5471 5470 5469 5468 5467 5466 5465 5464 5463 5462 5461 5460 5459 5458 5457 5456 5455 5454 5452 5451 5450 5450 5450 5450 5449 5449 5448 5447 5447 5446 5446 5447 5448 5448
5473 5471 5470 5469 5467 5465 5464 5463 5461 5460 5459 5458 5457 5456 5455 5453 5452 5451 5450 5448 5447 5445 5444 5443 5442 5441 5440 5438 5437 5436 5435 5434 5434 5434 5433 5432 5432 5431 5431 5430 5431 5431 5431
5463 5461 5460 5458 5456 5455 5453 5452 5450 5449 5448 5447 5446 5444 5443 5442 5441 5439 5437 5436 5434 5433 5431 5430 5428 5427 5426 5424 5423 5421 5420 5419 5419 5419 5418 5417 5416 5416 5415 5415 5414 5414 5414
5453 5451 5450 5448 5446 5444 5443 5441 5440 5438 5437 5436 5435 5433 5432 5431 5429 5427 5425 5423 5421 5420 5418 5416 5415 5413 5412 5410 5409 5407 5406 5405 5404 5403 5403 5402 5401 5401 5400 5400 5399 5398 5398
5444 5442 5440 5438 5436 5435 5433 5431 5429 5428 5427 5425 5424 5422 5421 5419 5417 5415 5413 5411 5409 5407 5405 5404 5402 5400 5399 5396 5395 5393 5392 5391 5390 5389 5389 5388 5387 5386 5385 5384 5384 5383 5383
5435 5433 5431 5429 5427 5425 5423 5421 5419 5418 5416 5415 5413 5412 5410 5408 5406 5404 5402 5399 5397 5395 5392 5390 5388 5386 5384 5382 5381 5379 5377 5376 5375 5374 5374 5373 5373 5372 5371 5370 5369 5369 5368